Regional Weather Roundup
Issued by NWS Newport/Morehead, NC

Current Version | Previous Version | Graphics & Text | Print | Product List | Glossary On
Versions: 1 2 3 4 5 6 7 8 9 10 11 12 13 14 15 16 17 18 19 20 21 22 23 24 25 26 27 28 29 30 31 32 33 34 35 36 37 38 39 40 41 42 43 44 45 46 47 48 49 50
000 ASUS42 KMHX 010725 RWRMHX WEATHER ROUNDUP FOR EASTERN NORTH CAROLINA NATIONAL WEATHER SERVICE NEWPORT/MOREHEAD CITY NC 300 AM EDT TUE SEP 01 2015 NOTE: "FAIR" INDICATES FEW OR NO CLOUDS BELOW 12,000 FEET WITH NO SIGNIFICANT WEATHER AND/OR OBSTRUCTIONS TO VISIBILITY NCZ015>017-031-032-045>047-102-103-010800- NORTH COAST CITY SKY/WX TMP DP RH WIND PRES REMARKS EDENTON FOG 70 69 98 CALM 30.04S VSB 1/2 ELIZABETH CITY CLOUDY 74 72 93 E3 30.04F KITTY HAWK CLOUDY 75 73 92 E3 30.03S MANTEO RAIN 74 74 98 NE8 30.03F $$ NCZ045>047-081-094-103-104-010800- CENTRAL COAST CITY SKY/WX TMP DP RH WIND PRES REMARKS FRISCO MOCLDY 78 75 90 SW5 30.02F SWANQUARTER NOT AVBL $$ NCZ095-097-098-100-101-010800- SOUTHERN COAST CITY SKY/WX TMP DP RH WIND PRES REMARKS BEAUFORT CLEAR 76 76 100 NW9 30.02S CEDAR ISLAND NOT AVBL JACKSONVILLE CLOUDY 75 72 90 NW7 30.03S PINEY ISLAND PTSUNNY N/A N/A N/A NW3 30.02S WILMINGTON CLOUDY 73 72 96 W6 30.04F $$ NCZ011>013-027>030-043-044-078>080-089-090>093-098-010800- COASTAL PLAIN CITY SKY/WX TMP DP RH WIND PRES REMARKS AHOSKIE FOG 70 70 99 CALM 30.06S VSB 1/2 CLINTON FOG 73 73 100 CALM 30.06S VSB 1/4 ELIZABETHTOWN CLOUDY 73 73 100 W3 30.06S GOLDSBORO FOG 73 73 100 W2 30.04S VSB<1/4 GREENVILLE CLOUDY 73 73 100 CALM 30.06S HAVELOCK CLOUDY 76 74 93 NW7 30.04S KENANSVILLE N/A 74 73 95 W3 30.06S KINSTON CLOUDY 74 74 98 CALM 30.05F NEW BERN CLOUDY 75 73 93 NW6 30.04S RICHLANDS CLOUDY 73 70 88 W3 30.04S ROCKY MOUNT CLOUDY 73 72 96 NW5 30.05F FOG WASHINGTON CLOUDY 73 73 98 CALM 30.04S WHITEVILLE CLOUDY 74 73 96 CALM 30.05F $$ AMZ130-135-150-152-154-156-158-170-250-252-270-ANZ085-086-088-633-658-670-010800- MARINE OBSERVATIONS STATION/POSITION TIME TEMP WIND PRES WAVE SWELL AIR SEA DIR/SP/G HT/PER HT/PER (UTC) (F) (DEG/KT/KT) (MB) (FT/S) (FT/S) CHESAPEAKE LIGHT 0700 76 90/ 1/ 2 1018.2 64 E VA BEACH 0650 77 78 80/ 8/ 8 1017.2 3/ 8 3/ 8 DUCK 0700 76 78 90/ 7/ 8 N/A 2 E DUCK 0611 78 N/A 2/ 9 OREGON INLET 0700 75 80 280/ 4/ 6 N/A 13E OREGON INLT 0700 78 N/A 3/ 8 HATTERAS CG 0700 79 80 210/ 4/ 5 N/A DIAMOND BUOY 0650 81 84 190/ 10/ 12 1016.6 4/ 5 3/ 5 CAPE LOOKOUT 0700 78 260/ 6/ 6 1016.0 BEAUFORT LAB 0700 77 79 330/ 4/ 7 N/A 30 SE NEW RVR IN 0608 80 81 260/ 12/ 16 1016.9 30 SE NEW RVR IN 0625 81 N/A 5/ 6 27 SE WRIGHTSVLE 0700 76 81 310/ 14/ 16 N/A 5 SE WRIGHTSVLE 0608 77 81 300/ 10/ 12 1017.3 225 S CAPE HAT 0650 84 84 230/ 12/ 14 1018.5 4/ 7 3/ 7 41 SE CHARLESTON 0650 81 82 230/ 8/ 10 1017.7 3/ 7 3/ 7 $$

USA.gov is the U.S. government's official web portal to all federal, state and local government web resources and services.